Weather History for Whiting Fld NAS, FL

Change the Weather History Date:

Wednesday, January 16, 2013

  Actual Average Record
Temperature  
Mean Temperature 59 °F -  
Max Temperature 72 °F 59 °F 72 °F (2006)
Min Temperature 46 °F 40 °F 25 °F (2014)
Degree Days  
Heating Degree Days 6    
Growing Degree Days 9 (Base 50)    
Moisture  
Dew Point 54 °F    
Average Humidity 87    
Maximum Humidity 100    
Minimum Humidity 82    
Precipitation  
Precipitation 0.64 in - - ()
Sea Level Pressure  
Sea Level Pressure 29.96 in    
Wind  
Wind Speed 9 mph (NW)    
Max Wind Speed 17 mph    
Max Gust Speed 22 mph    
Visibility 6 miles    
Events Rain    
Averages and records for this station are not official NWS values.
T = Trace of Precipitation, MM = Missing Value Source: NWS Daily Summary

Daily Weather History Graph

Daily Weather History Graph

Search for Another Location

Airport:

Trip Planner

Search our weather history database for the weather conditions in past years. The results will help you decide how hot, cold, wet, or windy it might be!

Date:

Astronomy

Jan. 16, 2013 Rise Set
Actual Time 6:45 AM CST 5:10 PM CST
Civil Twilight 6:20 AM CST 5:36 PM CST
Nautical Twilight 5:50 AM CST 6:05 PM CST
Astronomical Twilight 5:21 AM CST 6:34 PM CST
Moon 9:47 AM CST (1/16) 10:33 PM CST (1/16)
Length of Visible Light 11h 16m
Length of Day
10h 24m
Waxing Crescent, 28% of the Moon is Illuminated
Jan 16
Waxing Crescent
Jan 18
First Quarter
Jan 26
Full
Feb 3
Last Quarter
Feb 10
New

Hourly Weather History & Observations

Time (CST) Temp. Windchill Dew Point Humidity Pressure Visibility Wind Dir Wind Speed Gust Speed Precip Events Conditions
12:14 AM 69.8 °F - 66.2 °F 88% 29.95 in 9.0 mi South 8.1 mph - N/A   Overcast
12:56 AM 70.0 °F - 66.0 °F 87% 29.90 in 9.0 mi South 9.2 mph - N/A   Overcast
1:04 AM 69.8 °F - 66.2 °F 88% 29.94 in 8.0 mi South 11.5 mph - N/A   Overcast
1:12 AM 71.6 °F - 66.2 °F 83% 29.94 in 8.0 mi South 17.3 mph 21.9 mph N/A   Overcast
1:16 AM 71.6 °F - 66.2 °F 83% 29.94 in 8.0 mi South 13.8 mph - N/A   Overcast
1:56 AM 71.1 °F - 66.9 °F 87% 29.90 in 9.0 mi South 11.5 mph - 0.00 in   Overcast
2:56 AM 70.0 °F - 66.0 °F 87% 29.90 in 10.0 mi SSW 11.5 mph - N/A   Overcast
3:43 AM 71.6 °F - 66.2 °F 83% 29.94 in 8.0 mi SSW 9.2 mph - N/A   Mostly Cloudy
3:56 AM 71.1 °F - 66.0 °F 84% 29.90 in 8.0 mi SSW 8.1 mph - N/A   Mostly Cloudy
4:04 AM 71.6 °F - 66.2 °F 83% 29.94 in 7.0 mi SSW 10.4 mph - N/A   Overcast
4:11 AM 71.6 °F - 66.2 °F 83% 29.94 in 7.0 mi SSW 10.4 mph - N/A   Overcast
4:56 AM 72.0 °F - 66.9 °F 84% 29.89 in 6.0 mi SSW 11.5 mph - N/A   Haze
5:56 AM 64.9 °F - 60.1 °F 84% 29.91 in 7.0 mi NW 8.1 mph - N/A   Overcast
6:18 AM 64.4 °F - 59.0 °F 83% 29.96 in 6.0 mi NNW 8.1 mph - 0.01 in Rain Light Rain
6:56 AM 60.1 °F - 55.9 °F 86% 29.93 in 3.0 mi Calm Calm - 0.13 in Rain Rain
7:09 AM 59.0 °F - 55.4 °F 88% 29.98 in 1.0 mi Variable 6.9 mph - 0.03 in Rain Heavy Rain
7:34 AM 57.2 °F - 55.4 °F 94% 29.99 in 3.0 mi NNW 8.1 mph - 0.07 in Rain Rain
7:41 AM 57.2 °F - 55.4 °F 94% 29.99 in 1.0 mi Variable 6.9 mph - 0.07 in Rain Rain
7:56 AM 57.0 °F - 55.0 °F 93% 29.95 in 1.0 mi North 8.1 mph - 0.07 in   Drizzle
8:46 AM 55.4 °F - 53.6 °F 94% 30.01 in 0.8 mi NNW 6.9 mph - 0.00 in   Overcast
8:56 AM 55.9 °F - 54.0 °F 93% 29.98 in 0.8 mi NNW 10.4 mph - 0.00 in   Overcast
9:20 AM 55.4 °F - 55.4 °F 100% 30.02 in 0.8 mi NNW 4.6 mph - 0.02 in Rain Rain
9:56 AM 57.0 °F - 54.0 °F 89% 29.97 in 0.8 mi NNW 9.2 mph - 0.11 in Rain Rain
10:16 AM 57.2 °F - 53.6 °F 88% 30.01 in 6.0 mi NNW 9.2 mph - 0.01 in   Overcast
10:56 AM 55.9 °F - 53.1 °F 90% 29.96 in 7.0 mi NW 9.2 mph - 0.01 in   Overcast
11:56 AM 55.9 °F - 52.0 °F 87% 29.93 in 7.0 mi NNW 4.6 mph - 0.03 in   Overcast
12:03 PM 55.4 °F - 51.8 °F 88% 29.97 in 1.5 mi NW 8.1 mph - 0.02 in Rain Heavy Rain
12:23 PM 55.4 °F - 51.8 °F 88% 29.96 in 3.0 mi North 6.9 mph - 0.10 in Rain Light Rain
12:56 PM 55.9 °F - 53.1 °F 90% 29.94 in 5.0 mi NW 5.8 mph - 0.14 in Rain Light Rain
1:03 PM 55.4 °F - 53.6 °F 94% 29.97 in 1.5 mi NW 6.9 mph - 0.07 in Rain Heavy Rain
1:56 PM 55.0 °F - 52.0 °F 89% 29.93 in 1.5 mi NW 6.9 mph - 0.15 in Rain Rain
2:36 PM 53.6 °F - 51.8 °F 94% 29.96 in 2.0 mi Variable 3.5 mph - 0.00 in Rain Light Rain
2:47 PM 55.4 °F - 51.8 °F 88% 29.98 in 7.0 mi NW 6.9 mph - 0.00 in Rain Light Rain
2:56 PM 55.0 °F - 51.1 °F 86% 29.94 in 7.0 mi NW 5.8 mph - 0.00 in Rain Light Rain
3:48 PM 53.6 °F - 51.8 °F 94% 29.97 in 10.0 mi NNW 10.4 mph - 0.00 in Rain Light Rain
3:56 PM 54.0 °F - 50.0 °F 86% 29.94 in 10.0 mi NW 13.8 mph 17.3 mph 0.00 in Rain Light Rain
4:28 PM 51.8 °F - 48.2 °F 88% 29.98 in 9.0 mi NNW 10.4 mph 18.4 mph 0.00 in   Overcast
4:44 PM 51.8 °F - 46.4 °F 82% 29.99 in 8.0 mi NNW 10.4 mph - 0.00 in   Overcast
4:56 PM 52.0 °F - 46.9 °F 83% 29.96 in 7.0 mi NNW 10.4 mph 16.1 mph 0.00 in   Overcast
5:13 PM 51.8 °F - 46.4 °F 82% 30.01 in 5.0 mi NNW 9.2 mph - 0.00 in Rain Light Rain
5:42 PM 51.8 °F - 46.4 °F 82% 30.00 in 9.0 mi North 6.9 mph - 0.00 in   Overcast
5:56 PM 51.1 °F - 46.0 °F 83% 29.97 in 8.0 mi NW 6.9 mph - 0.00 in   Overcast
6:56 PM 50.0 °F - 46.0 °F 86% 29.98 in 9.0 mi NNW 3.5 mph - 0.00 in Rain Light Rain
7:56 PM 50.0 °F - 46.0 °F 86% 29.97 in 7.0 mi North 5.8 mph - 0.00 in Rain Light Rain
8:56 PM 50.0 °F - 46.0 °F 86% 29.96 in 9.0 mi Calm Calm - 0.00 in   Overcast
9:56 PM 50.0 °F - 46.0 °F 86% 29.97 in 9.0 mi West 8.1 mph - N/A   Overcast
10:56 PM 48.9 °F - 44.1 °F 83% 29.98 in 9.0 mi WNW 8.1 mph - 0.00 in Rain Light Rain
11:24 PM 48.2 °F - 42.8 °F 82% 30.02 in 2.5 mi WNW 10.4 mph - 0.00 in Rain Light Rain
11:54 PM 46.4 °F 41.9 °F 42.8 °F 87% 30.01 in 3.0 mi NW 9.2 mph - 0.00 in   Overcast
11:56 PM 46.9 °F - 43.0 °F 86% 29.98 in 3.0 mi WNW 10.4 mph - 0.00 in   Overcast